Home > Weather > Fauske > Past weeks

Flag for Norway Weather for the Past 2 Weeks in Fauske, Norway

Now
45 °F

Light rain. Broken clouds.


Feels Like: 37 °F
Forecast: 38 / 58 °F
Wind: 17 mph from Southwest

Location: Bodo Vi

Current Time: May 4, 2016 at 8:03:53 AM

Latest Report: May 4, 2016 at 6:50 AM


Visibility: N/A

Pressure: 30.07 "Hg

Humidity: 87%

Dew Point: 41 °F

Location of FauskeLocation

Historic Weather in Fauske — Graph

°F

Fauske Temperature Yesterday

Maximum temperature yesterday: 57 °F (at 3:20 PM)
Minimum temperature yesterday: 50 °F (at 12:50 AM)
Average temperature yesterday: 53 °F

High & Low Weather Summary for the Past Weeks

 TemperatureHumidityPressure
High57 °F (May 3, 3:20 PM)100% (Apr 24, 7:50 AM)30.33 "Hg (Apr 24, 7:50 AM)
Low30 °F (Apr 24, 11:50 PM)28% (May 1, 10:20 AM)29.56 "Hg (Apr 19, 6:20 AM)
Average44 °F60%29.94 "Hg
* Reported Apr 19 6:20 AM — May 4 6:20 AM, Fauske, Weather by CustomWeather, © 2016

Note: Actual official high and low records may vary slightly from our data, if they occured in-between our weather recording intervals... More about our weather records

Advertising

Fauske Weather History for the Previous 24 Hours

Scroll right to see more
 ConditionsComfort  
Time TempWeatherWind HumidityBarometerVisibility
6:20 AM
Wed, May 4
45 °FLight rain. Partly sunny.22 mph87%30.04 "HgN/A
5:50 AM45 °FPartly sunny.21 mph87%30.04 "HgN/A
5:20 AM45 °FPartly sunny.16 mph93%30.04 "HgN/A
4:50 AM46 °FPassing clouds.17 mph87%30.01 "HgN/A
2:50 AM48 °FPassing clouds.20 mph82%29.98 "HgN/A
1:50 AM52 °FPassing clouds.5 mph67%29.95 "HgN/A
12:50 AM54 °FPassing clouds.6 mph54%29.95 "HgN/A
11:20 PM
Tue, May 3
52 °FPassing clouds.9 mph62%29.92 "HgN/A
10:50 PM54 °FPartly sunny.8 mph54%29.92 "HgN/A
10:20 PM54 °FPartly sunny.3 mph54%29.89 "HgN/A
9:50 PM54 °FPartly sunny.9 mph54%29.89 "HgN/A
9:20 PM54 °FPartly sunny.5 mph54%29.89 "HgN/A
8:50 PM55 °FSunny.7 mph51%29.89 "Hg10 mi
8:20 PM54 °FSunny.9 mph54%29.89 "Hg10 mi
7:50 PM55 °FSunny.9 mph51%29.89 "Hg10 mi
7:20 PM55 °FPassing clouds.9 mph51%29.89 "HgN/A
6:50 PM55 °FPassing clouds.7 mph51%29.89 "HgN/A
6:20 PM55 °FPassing clouds.9 mph51%29.89 "HgN/A
5:50 PM57 °FPassing clouds.8 mph48%29.89 "HgN/A
5:20 PM55 °FSunny.6 mph55%29.89 "Hg10 mi
4:50 PM57 °FPartly sunny.9 mph48%29.89 "HgN/A
4:20 PM57 °FPartly sunny.13 mph51%29.89 "HgN/A
3:50 PM57 °FPartly sunny.14 mph51%29.89 "HgN/A
3:20 PM57 °FPartly sunny.15 mph48%29.89 "HgN/A
2:50 PM55 °FScattered clouds.13 mph51%29.89 "HgN/A
2:20 PM55 °FSunny.14 mph55%29.89 "Hg10 mi
1:20 PM55 °FSunny.17 mph51%29.89 "Hg10 mi
12:50 PM55 °FSunny.14 mph51%29.89 "Hg10 mi
11:50 AM55 °FSunny.16 mph51%29.89 "Hg10 mi
11:20 AM54 °FSunny.15 mph51%29.89 "Hg10 mi
10:50 AM54 °FSunny.14 mph51%29.89 "Hg10 mi
10:20 AM54 °FSunny.17 mph51%29.89 "Hg10 mi
9:50 AM54 °FSunny.17 mph51%29.89 "Hg10 mi
9:20 AM54 °FSunny.16 mph51%29.86 "Hg10 mi
8:50 AM52 °FSunny.16 mph54%29.86 "Hg10 mi
8:20 AM50 °FSunny.15 mph58%29.86 "Hg10 mi
Weather by CustomWeather, © 2016

See weather overviewHow to use our weather pages